Погода в Эрлангене

Германия     49°35′39″N   11°00′46″E
темп.,
°C
ветер,
м/с
пор.,
м/с
влажн.,
%
обл.,
%
осадки,
мм/ч
давл.,
гПа
погр.,
м
22 апреля, чт
чт2223:00+8сз259097 1.3 1016109
02:00+6ссз2793100 1.3 1018178
05:00+5ссз2496100 0.0 1019134
08:00+5с3486100 0.0 1021489
11:00+8ссз344594 0.0 1022932
14:00+11сз4634100 0.0 10221530
17:00+11ссз56365 0.0 10221629
20:00+7сз37565 0.0 1024356
23 апреля, пт
пт2323:00+4ссз23685 0.0 102664
02:00+3с00765 0.0 102714
05:00+2з00812 0.0 102711
08:00+4сз11722 0.0 1028171
11:00+9сз23480 0.0 1027984
14:00+13сз33360 0.0 10261448
17:00+14сз34355 0.0 10251734
20:00+9с24555 0.0 1026124
24 апреля, сб
сб2423:00+5св24685 0.0 102791
02:00+4св11735 0.0 102719
05:00+3св11785 0.0 102719
08:00+5св116864 0.0 1027144
11:00+12ссз1149100 0.0 1025839
14:00+14сз233871 0.0 10231407
17:00+15сз3337100 0.0 10211614
20:00+10с3655100 0.0 1022237
25 апреля, вс
вс2523:00+6ссв2665100 0.0 1024145
02:00+4ссв2275100 0.0 102469
05:00+3с23810 0.0 102471
08:00+5ссв23730 0.0 1025228
11:00+11ссв33491 0.0 10241196
14:00+14ссв33330 0.0 10221560
17:00+15ссв33310 0.0 10211593
20:00+10св375080 0.0 1020197
26 апреля, пн
пн2623:00+5всв255614 0.0 1022112
02:00+3св24605 0.0 1021105
05:00+1ссв12670 0.0 102041
08:00+4всв235653 0.0 1019203
11:00+11св23355 0.0 1017987
14:00+15ссв23250 0.0 10141577
17:00+16св22250 0.0 10121993
20:00+10св494884 0.0 1011298